owner,sensor,date,latitude,longitude,vertical_datum,wind_speed,wind_to_direction,wind_speed_of_gust,qcFlag 
NOS,ioos:station:wmo:bzst2:1,2017-10-01T00:00:00Z,26.0670,-97.1550,15.0,7.8,68.0,8.3,'11111222,11111222,11111222' 
NOS,ioos:station:wmo:bzst2:1,2017-10-01T00:24:00Z,26.0670,-97.1550,15.0,8.5,62.0,9.2,'11111222,11111222,11111222' 
NOS,ioos:station:wmo:bzst2:1,2017-10-01T00:30:00Z,26.0670,-97.1550,15.0,7.8,61.0,8.7,'11111222,11111222,11111222' 
NOS,ioos:station:wmo:bzst2:1,2017-10-01T00:36:00Z,26.0670,-97.1550,15.0,7.8,54.0,8.7,'11111222,11111222,11111222' 
NOS,ioos:station:wmo:bzst2:1,2017-10-01T00:42:00Z,26.0670,-97.1550,15.0,8.1,54.0,9.4,'11111222,11111222,11111222' 
NOS,ioos:station:wmo:bzst2:1,2017-10-01T00:48:00Z,26.0670,-97.1550,15.0,8.4,61.0,9.5,'11111222,11111222,11111222' 
NOS,ioos:station:wmo:bzst2:1,2017-10-01T00:54:00Z,26.0670,-97.1550,15.0,8.0,56.0,9.2,'11111222,11111222,11111222' 
NOS,ioos:station:wmo:bzst2:1,2017-10-01T01:00:00Z,26.0670,-97.1550,15.0,8.5,63.0,9.3,'11111222,11111222,11111222' 
NOS,ioos:station:wmo:bzst2:1,2017-10-01T01:06:00Z,26.0670,-97.1550,15.0,8.4,64.0,9.6,'11111222,11111222,11111222' 
NOS,ioos:station:wmo:bzst2:1,2017-10-01T01:12:00Z,26.0670,-97.1550,15.0,8.1,71.0,8.9,'11111222,11111222,11111222' 
NOS,ioos:station:wmo:bzst2:1,2017-10-01T01:18:00Z,26.0670,-97.1550,15.0,7.5,65.0,8.2,'11111222,11111222,11111222' 
NOS,ioos:station:wmo:bzst2:1,2017-10-01T01:24:00Z,26.0670,-97.1550,15.0,7.8,63.0,8.5,'11111222,11111222,11111222' 
NOS,ioos:station:wmo:bzst2:1,2017-10-01T01:30:00Z,26.0670,-97.1550,15.0,7.5,65.0,8.7,'11111222,11111222,11111222' 
NOS,ioos:station:wmo:bzst2:1,2017-10-01T01:36:00Z,26.0670,-97.1550,15.0,6.9,64.0,8.3,'11111222,11111222,11111222' 
NOS,ioos:station:wmo:bzst2:1,2017-10-01T01:42:00Z,26.0670,-97.1550,15.0,7.0,57.0,8.4,'11111222,11111222,11111222' 
NOS,ioos:station:wmo:bzst2:1,2017-10-01T01:48:00Z,26.0670,-97.1550,15.0,7.2,66.0,8.1,'11111222,11111222,11111222' 
NOS,ioos:station:wmo:bzst2:1,2017-10-01T01:54:00Z,26.0670,-97.1550,15.0,7.6,66.0,8.2,'11111222,11111222,11111222' 
NOS,ioos:station:wmo:bzst2:1,2017-10-01T02:00:00Z,26.0670,-97.1550,15.0,6.8,69.0,7.7,'11111222,11111222,11111222' 
NOS,ioos:station:wmo:bzst2:1,2017-10-01T02:06:00Z,26.0670,-97.1550,15.0,6.8,65.0,7.7,'11111222,11111222,11111222' 
NOS,ioos:station:wmo:bzst2:1,2017-10-01T02:12:00Z,26.0670,-97.1550,15.0,6.4,65.0,7.2,'11111222,11111222,11111222' 
NOS,ioos:station:wmo:bzst2:1,2017-10-01T02:18:00Z,26.0670,-97.1550,15.0,7.4,71.0,8.1,'11111222,11111222,11111222' 
NOS,ioos:station:wmo:bzst2:1,2017-10-01T02:24:00Z,26.0670,-97.1550,15.0,7.0,73.0,8.2,'11111222,11111222,11111222' 
NOS,ioos:station:wmo:bzst2:1,2017-10-01T02:30:00Z,26.0670,-97.1550,15.0,6.9,55.0,7.7,'11111222,11111222,11111222' 
NOS,ioos:station:wmo:bzst2:1,2017-10-01T02:36:00Z,26.0670,-97.1550,15.0,7.2,48.0,8.3,'11111222,11111222,11111222' 
NOS,ioos:station:wmo:bzst2:1,2017-10-01T02:42:00Z,26.0670,-97.1550,15.0,5.8,54.0,7.1,'11111222,11111222,11111222' 
NOS,ioos:station:wmo:bzst2:1,2017-10-01T02:48:00Z,26.0670,-97.1550,15.0,5.8,56.0,6.2,'11111222,11111222,11111222' 
NOS,ioos:station:wmo:bzst2:1,2017-10-01T02:54:00Z,26.0670,-97.1550,15.0,5.2,70.0,5.8,'11111222,11111222,11111222' 
NOS,ioos:station:wmo:bzst2:1,2017-10-01T03:00:00Z,26.0670,-97.1550,15.0,5.5,75.0,7.6,'11111222,11111222,11111222' 
NOS,ioos:station:wmo:bzst2:1,2017-10-01T03:06:00Z,26.0670,-97.1550,15.0,6.4,65.0,7.0,'11111222,11111222,11111222' 
NOS,ioos:station:wmo:bzst2:1,2017-10-01T03:12:00Z,26.0670,-97.1550,15.0,6.1,57.0,6.7,'11111222,11111222,11111222' 
NOS,ioos:station:wmo:bzst2:1,2017-10-01T03:18:00Z,26.0670,-97.1550,15.0,6.3,66.0,6.8,'11111222,11111222,11111222' 
NOS,ioos:station:wmo:bzst2:1,2017-10-01T03:24:00Z,26.0670,-97.1550,15.0,6.7,59.0,7.2,'11111222,11111222,11111222' 
NOS,ioos:station:wmo:bzst2:1,2017-10-01T03:30:00Z,26.0670,-97.1550,15.0,6.1,64.0,7.0,'11111222,11111222,11111222' 
NOS,ioos:station:wmo:bzst2:1,2017-10-01T03:36:00Z,26.0670,-97.1550,15.0,6.2,63.0,6.7,'11111222,11111222,11111222' 
NOS,ioos:station:wmo:bzst2:1,2017-10-01T03:42:00Z,26.0670,-97.1550,15.0,5.7,54.0,6.4,'11111222,11111222,11111222' 
NOS,ioos:station:wmo:bzst2:1,2017-10-01T03:48:00Z,26.0670,-97.1550,15.0,5.7,55.0,6.7,'11111222,11111222,11111222' 
NOS,ioos:station:wmo:bzst2:1,2017-10-01T03:54:00Z,26.0670,-97.1550,15.0,6.2,53.0,6.7,'11111222,11111222,11111222' 
NOS,ioos:station:wmo:bzst2:1,2017-10-01T04:00:00Z,26.0670,-97.1550,15.0,6.1,47.0,7.0,'11111222,11111222,11111222' 
NOS,ioos:station:wmo:bzst2:1,2017-10-01T04:06:00Z,26.0670,-97.1550,15.0,6.1,44.0,7.0,'11111222,11111222,11111222' 
NOS,ioos:station:wmo:bzst2:1,2017-10-01T04:12:00Z,26.0670,-97.1550,15.0,6.5,51.0,7.0,'11111222,11111222,11111222' 
NOS,ioos:station:wmo:bzst2:1,2017-10-01T04:18:00Z,26.0670,-97.1550,15.0,6.3,50.0,7.0,'11111222,11111222,11111222' 
NOS,ioos:station:wmo:bzst2:1,2017-10-01T04:24:00Z,26.0670,-97.1550,15.0,6.2,59.0,7.0,'11111222,11111222,11111222' 
NOS,ioos:station:wmo:bzst2:1,2017-10-01T04:30:00Z,26.0670,-97.1550,15.0,6.1,55.0,7.0,'11111222,11111222,11111222' 
NOS,ioos:station:wmo:bzst2:1,2017-10-01T04:36:00Z,26.0670,-97.1550,15.0,6.0,49.0,6.8,'11111222,11111222,11111222' 
NOS,ioos:station:wmo:bzst2:1,2017-10-01T04:42:00Z,26.0670,-97.1550,15.0,5.9,50.0,6.7,'11111222,11111222,11111222' 
NOS,ioos:station:wmo:bzst2:1,2017-10-01T04:48:00Z,26.0670,-97.1550,15.0,5.7,51.0,6.7,'11111222,11111222,11111222' 
NOS,ioos:station:wmo:bzst2:1,2017-10-01T04:54:00Z,26.0670,-97.1550,15.0,5.8,48.0,6.5,'11111222,11111222,11111222' 
NOS,ioos:station:wmo:bzst2:1,2017-10-01T05:00:00Z,26.0670,-97.1550,15.0,5.3,49.0,6.5,'11111222,11111222,11111222' 
NOS,ioos:station:wmo:bzst2:1,2017-10-01T05:06:00Z,26.0670,-97.1550,15.0,6.2,50.0,6.9,'11111222,11111222,11111222' 
NOS,ioos:station:wmo:bzst2:1,2017-10-01T05:12:00Z,26.0670,-97.1550,15.0,6.0,58.0,7.2,'11111222,11111222,11111222' 
NOS,ioos:station:wmo:bzst2:1,2017-10-01T05:18:00Z,26.0670,-97.1550,15.0,6.9,56.0,7.4,'11111222,11111222,11111222' 
NOS,ioos:station:wmo:bzst2:1,2017-10-01T05:24:00Z,26.0670,-97.1550,15.0,6.2,55.0,7.0,'11111222,11111222,11111222' 
NOS,ioos:station:wmo:bzst2:1,2017-10-01T05:30:00Z,26.0670,-97.1550,15.0,6.8,55.0,7.9,'11111222,11111222,11111222' 
NOS,ioos:station:wmo:bzst2:1,2017-10-01T05:36:00Z,26.0670,-97.1550,15.0,6.2,53.0,7.6,'11111222,11111222,11111222' 
NOS,ioos:station:wmo:bzst2:1,2017-10-01T05:42:00Z,26.0670,-97.1550,15.0,6.5,52.0,7.5,'11111222,11111222,11111222' 
NOS,ioos:station:wmo:bzst2:1,2017-10-01T05:48:00Z,26.0670,-97.1550,15.0,6.7,53.0,8.2,'11111222,11111222,11111222' 
NOS,ioos:station:wmo:bzst2:1,2017-10-01T05:54:00Z,26.0670,-97.1550,15.0,7.0,48.0,8.6,'11111222,11111222,11111222' 
NOS,ioos:station:wmo:bzst2:1,2017-10-01T06:00:00Z,26.0670,-97.1550,15.0,7.0,45.0,7.8,'11111222,11111222,11111222' 
NOS,ioos:station:wmo:bzst2:1,2017-10-01T06:06:00Z,26.0670,-97.1550,15.0,7.1,55.0,8.6,'11111222,11111222,11111222' 
NOS,ioos:station:wmo:bzst2:1,2017-10-01T06:12:00Z,26.0670,-97.1550,15.0,7.5,52.0,8.0,'11111222,11111222,11111222' 
NOS,ioos:station:wmo:bzst2:1,2017-10-01T06:18:00Z,26.0670,-97.1550,15.0,7.0,55.0,8.0,'11111222,11111222,11111222' 
NOS,ioos:station:wmo:bzst2:1,2017-10-01T06:24:00Z,26.0670,-97.1550,15.0,6.6,57.0,8.0,'11111222,11111222,11111222' 
NOS,ioos:station:wmo:bzst2:1,2017-10-01T06:30:00Z,26.0670,-97.1550,15.0,6.0,59.0,7.1,'11111222,11111222,11111222' 
NOS,ioos:station:wmo:bzst2:1,2017-10-01T06:36:00Z,26.0670,-97.1550,15.0,7.0,55.0,8.0,'11111222,11111222,11111222' 
NOS,ioos:station:wmo:bzst2:1,2017-10-01T06:42:00Z,26.0670,-97.1550,15.0,7.4,46.0,8.8,'11111222,11111222,11111222' 
NOS,ioos:station:wmo:bzst2:1,2017-10-01T06:48:00Z,26.0670,-97.1550,15.0,6.8,52.0,8.0,'11111222,11111222,11111222' 
NOS,ioos:station:wmo:bzst2:1,2017-10-01T06:54:00Z,26.0670,-97.1550,15.0,7.2,51.0,8.6,'11111222,11111222,11111222' 
NOS,ioos:station:wmo:bzst2:1,2017-10-01T07:00:00Z,26.0670,-97.1550,15.0,7.1,41.0,8.3,'11111222,11111222,11111222' 
NOS,ioos:station:wmo:bzst2:1,2017-10-01T07:06:00Z,26.0670,-97.1550,15.0,7.1,47.0,8.5,'11111222,11111222,11111222' 
NOS,ioos:station:wmo:bzst2:1,2017-10-01T07:12:00Z,26.0670,-97.1550,15.0,7.0,58.0,8.2,'11111222,11111222,11111222' 
NOS,ioos:station:wmo:bzst2:1,2017-10-01T07:18:00Z,26.0670,-97.1550,15.0,7.7,56.0,9.2,'11111222,11111222,11111222' 
NOS,ioos:station:wmo:bzst2:1,2017-10-01T07:24:00Z,26.0670,-97.1550,15.0,8.7,55.0,9.7,'11111222,11111222,11111222' 
NOS,ioos:station:wmo:bzst2:1,2017-10-01T07:30:00Z,26.0670,-97.1550,15.0,8.1,58.0,9.8,'11111222,11111222,11111222' 
NOS,ioos:station:wmo:bzst2:1,2017-10-01T07:36:00Z,26.0670,-97.1550,15.0,8.8,58.0,9.7,'11111222,11111222,11111222' 
NOS,ioos:station:wmo:bzst2:1,2017-10-01T07:42:00Z,26.0670,-97.1550,15.0,8.6,59.0,9.5,'11111222,11111222,11111222' 
NOS,ioos:station:wmo:bzst2:1,2017-10-01T07:48:00Z,26.0670,-97.1550,15.0,7.6,62.0,8.6,'11111222,11111222,11111222' 
NOS,ioos:station:wmo:bzst2:1,2017-10-01T07:54:00Z,26.0670,-97.1550,15.0,7.7,57.0,8.8,'11111222,11111222,11111222' 
NOS,ioos:station:wmo:bzst2:1,2017-10-01T08:00:00Z,26.0670,-97.1550,15.0,7.5,65.0,8.8,'11111222,11111222,11111222' 
NOS,ioos:station:wmo:bzst2:1,2017-10-01T08:06:00Z,26.0670,-97.1550,15.0,7.1,60.0,8.3,'11111222,11111222,11111222' 
NOS,ioos:station:wmo:bzst2:1,2017-10-01T08:12:00Z,26.0670,-97.1550,15.0,7.6,51.0,8.6,'11111222,11111222,11111222' 
NOS,ioos:station:wmo:bzst2:1,2017-10-01T08:18:00Z,26.0670,-97.1550,15.0,6.9,65.0,7.8,'11111222,11111222,11111222' 
NOS,ioos:station:wmo:bzst2:1,2017-10-01T08:24:00Z,26.0670,-97.1550,15.0,7.6,67.0,8.3,'11111222,11111222,11111222' 
NOS,ioos:station:wmo:bzst2:1,2017-10-01T08:30:00Z,26.0670,-97.1550,15.0,7.7,68.0,8.4,'11111222,11111222,11111222' 
NOS,ioos:station:wmo:bzst2:1,2017-10-01T08:36:00Z,26.0670,-97.1550,15.0,6.7,65.0,8.3,'11111222,11111222,11111222' 
NOS,ioos:station:wmo:bzst2:1,2017-10-01T08:42:00Z,26.0670,-97.1550,15.0,7.6,57.0,8.1,'11111222,11111222,11111222' 
NOS,ioos:station:wmo:bzst2:1,2017-10-01T08:48:00Z,26.0670,-97.1550,15.0,7.7,60.0,8.7,'11111222,11111222,11111222' 
NOS,ioos:station:wmo:bzst2:1,2017-10-01T08:54:00Z,26.0670,-97.1550,15.0,7.2,62.0,8.4,'11111222,11111222,11111222' 
NOS,ioos:station:wmo:bzst2:1,2017-10-01T09:00:00Z,26.0670,-97.1550,15.0,7.7,68.0,8.3,'11111222,11111222,11111222' 
NOS,ioos:station:wmo:bzst2:1,2017-10-01T09:06:00Z,26.0670,-97.1550,15.0,7.1,64.0,8.1,'11111222,11111222,11111222' 
NOS,ioos:station:wmo:bzst2:1,2017-10-01T09:12:00Z,26.0670,-97.1550,15.0,7.2,62.0,7.9,'11111222,11111222,11111222' 
NOS,ioos:station:wmo:bzst2:1,2017-10-01T09:18:00Z,26.0670,-97.1550,15.0,7.2,62.0,8.3,'11111222,11111222,11111222' 
NOS,ioos:station:wmo:bzst2:1,2017-10-01T09:24:00Z,26.0670,-97.1550,15.0,7.1,60.0,8.0,'11111222,11111222,11111222' 
NOS,ioos:station:wmo:bzst2:1,2017-10-01T09:30:00Z,26.0670,-97.1550,15.0,6.4,66.0,7.4,'11111222,11111222,11111222' 
NOS,ioos:station:wmo:bzst2:1,2017-10-01T09:36:00Z,26.0670,-97.1550,15.0,7.1,57.0,8.1,'11111222,11111222,11111222' 
NOS,ioos:station:wmo:bzst2:1,2017-10-01T09:42:00Z,26.0670,-97.1550,15.0,6.9,64.0,7.8,'11111222,11111222,11111222' 
NOS,ioos:station:wmo:bzst2:1,2017-10-01T09:48:00Z,26.0670,-97.1550,15.0,7.9,63.0,8.4,'11111222,11111222,11111222' 
NOS,ioos:station:wmo:bzst2:1,2017-10-01T09:54:00Z,26.0670,-97.1550,15.0,7.0,66.0,8.2,'11111222,11111222,11111222' 
NOS,ioos:station:wmo:bzst2:1,2017-10-01T10:00:00Z,26.0670,-97.1550,15.0,6.7,68.0,7.7,'11111222,11111222,11111222' 
NOS,ioos:station:wmo:bzst2:1,2017-10-01T10:06:00Z,26.0670,-97.1550,15.0,7.0,61.0,7.7,'11111222,11111222,11111222' 
NOS,ioos:station:wmo:bzst2:1,2017-10-01T10:12:00Z,26.0670,-97.1550,15.0,7.1,59.0,7.6,'11111222,11111222,11111222' 
NOS,ioos:station:wmo:bzst2:1,2017-10-01T10:18:00Z,26.0670,-97.1550,15.0,6.8,62.0,7.4,'11111222,11111222,11111222' 
NOS,ioos:station:wmo:bzst2:1,2017-10-01T10:24:00Z,26.0670,-97.1550,15.0,6.2,68.0,7.4,'11111222,11111222,11111222' 
NOS,ioos:station:wmo:bzst2:1,2017-10-01T10:30:00Z,26.0670,-97.1550,15.0,6.5,68.0,7.7,'11111222,11111222,11111222' 
NOS,ioos:station:wmo:bzst2:1,2017-10-01T10:36:00Z,26.0670,-97.1550,15.0,6.8,56.0,7.4,'11111222,11111222,11111222' 
NOS,ioos:station:wmo:bzst2:1,2017-10-01T10:42:00Z,26.0670,-97.1550,15.0,6.4,68.0,6.9,'11111222,11111222,11111222' 
NOS,ioos:station:wmo:bzst2:1,2017-10-01T10:48:00Z,26.0670,-97.1550,15.0,6.7,64.0,7.4,'11111222,11111222,11111222' 
NOS,ioos:station:wmo:bzst2:1,2017-10-01T10:54:00Z,26.0670,-97.1550,15.0,5.9,65.0,7.5,'11111222,11111222,11111222' 
NOS,ioos:station:wmo:bzst2:1,2017-10-01T11:00:00Z,26.0670,-97.1550,15.0,6.8,61.0,7.4,'11111222,11111222,11111222' 
NOS,ioos:station:wmo:bzst2:1,2017-10-01T11:06:00Z,26.0670,-97.1550,15.0,6.9,59.0,7.8,'11111222,11111222,11111222' 
NOS,ioos:station:wmo:bzst2:1,2017-10-01T11:12:00Z,26.0670,-97.1550,15.0,6.2,58.0,7.7,'11111222,11111222,11111222' 
NOS,ioos:station:wmo:bzst2:1,2017-10-01T11:18:00Z,26.0670,-97.1550,15.0,6.4,73.0,7.2,'11111222,11111222,11111222' 
NOS,ioos:station:wmo:bzst2:1,2017-10-01T11:24:00Z,26.0670,-97.1550,15.0,7.1,68.0,7.8,'11111222,11111222,11111222' 
NOS,ioos:station:wmo:bzst2:1,2017-10-01T11:30:00Z,26.0670,-97.1550,15.0,6.6,77.0,7.5,'11111222,11111222,11111222' 
NOS,ioos:station:wmo:bzst2:1,2017-10-01T11:36:00Z,26.0670,-97.1550,15.0,5.7,80.0,7.0,'11111222,11111222,11111222' 
NOS,ioos:station:wmo:bzst2:1,2017-10-01T11:42:00Z,26.0670,-97.1550,15.0,5.9,72.0,7.1,'11111222,11111222,11111222' 
NOS,ioos:station:wmo:bzst2:1,2017-10-01T11:48:00Z,26.0670,-97.1550,15.0,6.0,71.0,7.1,'11111222,11111222,11111222' 
NOS,ioos:station:wmo:bzst2:1,2017-10-01T11:54:00Z,26.0670,-97.1550,15.0,6.8,69.0,7.4,'11111222,11111222,11111222' 
NOS,ioos:station:wmo:bzst2:1,2017-10-01T12:00:00Z,26.0670,-97.1550,15.0,6.4,70.0,7.1,'11111222,11111222,11111222' 
NOS,ioos:station:wmo:bzst2:1,2017-10-01T12:06:00Z,26.0670,-97.1550,15.0,5.9,71.0,7.4,'11111222,11111222,11111222' 
NOS,ioos:station:wmo:bzst2:1,2017-10-01T12:12:00Z,26.0670,-97.1550,15.0,5.9,67.0,6.8,'11111222,11111222,11111222' 
NOS,ioos:station:wmo:bzst2:1,2017-10-01T12:18:00Z,26.0670,-97.1550,15.0,6.0,74.0,7.1,'11111222,11111222,11111222' 
NOS,ioos:station:wmo:bzst2:1,2017-10-01T12:24:00Z,26.0670,-97.1550,15.0,5.4,70.0,6.6,'11111222,11111222,11111222' 
NOS,ioos:station:wmo:bzst2:1,2017-10-01T12:30:00Z,26.0670,-97.1550,15.0,5.8,74.0,7.1,'11111222,11111222,11111222' 
NOS,ioos:station:wmo:bzst2:1,2017-10-01T12:36:00Z,26.0670,-97.1550,15.0,6.1,67.0,6.7,'11111222,11111222,11111222' 
NOS,ioos:station:wmo:bzst2:1,2017-10-01T12:42:00Z,26.0670,-97.1550,15.0,6.1,66.0,6.7,'11111222,11111222,11111222' 
NOS,ioos:station:wmo:bzst2:1,2017-10-01T12:48:00Z,26.0670,-97.1550,15.0,6.0,73.0,6.8,'11111222,11111222,11111222' 
NOS,ioos:station:wmo:bzst2:1,2017-10-01T12:54:00Z,26.0670,-97.1550,15.0,5.8,74.0,6.6,'11111222,11111222,11111222' 
NOS,ioos:station:wmo:bzst2:1,2017-10-01T13:00:00Z,26.0670,-97.1550,15.0,6.7,69.0,7.6,'11111222,11111222,11111222' 
NOS,ioos:station:wmo:bzst2:1,2017-10-01T13:06:00Z,26.0670,-97.1550,15.0,6.8,70.0,7.4,'11111222,11111222,11111222' 
NOS,ioos:station:wmo:bzst2:1,2017-10-01T13:12:00Z,26.0670,-97.1550,15.0,6.5,75.0,7.1,'11111222,11111222,11111222' 
NOS,ioos:station:wmo:bzst2:1,2017-10-01T13:18:00Z,26.0670,-97.1550,15.0,5.9,68.0,7.1,'11111222,11111222,11111222' 
NOS,ioos:station:wmo:bzst2:1,2017-10-01T13:24:00Z,26.0670,-97.1550,15.0,6.3,64.0,7.4,'11111222,11111222,11111222' 
NOS,ioos:station:wmo:bzst2:1,2017-10-01T13:30:00Z,26.0670,-97.1550,15.0,5.7,75.0,7.4,'11111222,11111222,11111222' 
NOS,ioos:station:wmo:bzst2:1,2017-10-01T13:36:00Z,26.0670,-97.1550,15.0,5.9,71.0,7.0,'11111222,11111222,11111222' 
NOS,ioos:station:wmo:bzst2:1,2017-10-01T13:42:00Z,26.0670,-97.1550,15.0,5.4,74.0,6.3,'11111222,11111222,11111222' 
NOS,ioos:station:wmo:bzst2:1,2017-10-01T13:48:00Z,26.0670,-97.1550,15.0,5.8,69.0,6.8,'11111222,11111222,11111222' 
NOS,ioos:station:wmo:bzst2:1,2017-10-01T13:54:00Z,26.0670,-97.1550,15.0,6.4,77.0,7.1,'11111222,11111222,11111222' 
NOS,ioos:station:wmo:bzst2:1,2017-10-01T14:00:00Z,26.0670,-97.1550,15.0,6.0,68.0,6.8,'11111222,11111222,11111222' 
NOS,ioos:station:wmo:bzst2:1,2017-10-01T14:06:00Z,26.0670,-97.1550,15.0,6.4,70.0,6.6,'11111222,11111222,11111222' 
NOS,ioos:station:wmo:bzst2:1,2017-10-01T14:12:00Z,26.0670,-97.1550,15.0,6.1,75.0,7.0,'11111222,11111222,11111222' 
NOS,ioos:station:wmo:bzst2:1,2017-10-01T14:18:00Z,26.0670,-97.1550,15.0,6.0,75.0,6.8,'11111222,11111222,11111222' 
NOS,ioos:station:wmo:bzst2:1,2017-10-01T14:24:00Z,26.0670,-97.1550,15.0,6.3,73.0,7.2,'11111222,11111222,11111222' 
NOS,ioos:station:wmo:bzst2:1,2017-10-01T14:30:00Z,26.0670,-97.1550,15.0,5.6,73.0,6.2,'11111222,11111222,11111222' 
NOS,ioos:station:wmo:bzst2:1,2017-10-01T14:36:00Z,26.0670,-97.1550,15.0,6.4,68.0,6.9,'11111222,11111222,11111222' 
NOS,ioos:station:wmo:bzst2:1,2017-10-01T14:42:00Z,26.0670,-97.1550,15.0,6.0,75.0,6.8,'11111222,11111222,11111222' 
NOS,ioos:station:wmo:bzst2:1,2017-10-01T14:48:00Z,26.0670,-97.1550,15.0,5.5,71.0,6.7,'11111222,11111222,11111222' 
NOS,ioos:station:wmo:bzst2:1,2017-10-01T14:54:00Z,26.0670,-97.1550,15.0,5.2,72.0,6.3,'11111222,11111222,11111222' 
NOS,ioos:station:wmo:bzst2:1,2017-10-01T15:00:00Z,26.0670,-97.1550,15.0,6.2,69.0,6.5,'11111222,11111222,11111222' 
NOS,ioos:station:wmo:bzst2:1,2017-10-01T15:06:00Z,26.0670,-97.1550,15.0,6.0,76.0,6.7,'11111222,11111222,11111222' 
NOS,ioos:station:wmo:bzst2:1,2017-10-01T15:12:00Z,26.0670,-97.1550,15.0,5.7,75.0,6.5,'11111222,11111222,11111222' 
NOS,ioos:station:wmo:bzst2:1,2017-10-01T15:18:00Z,26.0670,-97.1550,15.0,5.7,75.0,6.5,'11111222,11111222,11111222' 
NOS,ioos:station:wmo:bzst2:1,2017-10-01T15:24:00Z,26.0670,-97.1550,15.0,6.0,75.0,6.7,'11111222,11111222,11111222' 
NOS,ioos:station:wmo:bzst2:1,2017-10-01T15:30:00Z,26.0670,-97.1550,15.0,6.0,76.0,6.8,'11111222,11111222,11111222' 
NOS,ioos:station:wmo:bzst2:1,2017-10-01T15:36:00Z,26.0670,-97.1550,15.0,5.5,73.0,6.6,'11111222,11111222,11111222' 
NOS,ioos:station:wmo:bzst2:1,2017-10-01T15:42:00Z,26.0670,-97.1550,15.0,5.0,75.0,6.2,'11111222,11111222,11111222' 
NOS,ioos:station:wmo:bzst2:1,2017-10-01T15:48:00Z,26.0670,-97.1550,15.0,5.5,81.0,6.4,'11111222,11111222,11111222' 
NOS,ioos:station:wmo:bzst2:1,2017-10-01T15:54:00Z,26.0670,-97.1550,15.0,5.3,82.0,6.4,'11111222,11111222,11111222' 
NOS,ioos:station:wmo:bzst2:1,2017-10-01T16:00:00Z,26.0670,-97.1550,15.0,5.4,82.0,6.0,'11111222,11111222,11111222' 
NOS,ioos:station:wmo:bzst2:1,2017-10-01T16:06:00Z,26.0670,-97.1550,15.0,5.7,75.0,6.4,'11111222,11111222,11111222' 
NOS,ioos:station:wmo:bzst2:1,2017-10-01T16:12:00Z,26.0670,-97.1550,15.0,5.4,80.0,6.2,'11111222,11111222,11111222' 
NOS,ioos:station:wmo:bzst2:1,2017-10-01T16:18:00Z,26.0670,-97.1550,15.0,5.4,81.0,6.0,'11111222,11111222,11111222' 
NOS,ioos:station:wmo:bzst2:1,2017-10-01T16:24:00Z,26.0670,-97.1550,15.0,5.1,85.0,6.2,'11111222,11111222,11111222' 
NOS,ioos:station:wmo:bzst2:1,2017-10-01T16:30:00Z,26.0670,-97.1550,15.0,5.2,84.0,5.7,'11111222,11111222,11111222' 
NOS,ioos:station:wmo:bzst2:1,2017-10-01T16:36:00Z,26.0670,-97.1550,15.0,5.2,85.0,6.3,'11111222,11111222,11111222' 
NOS,ioos:station:wmo:bzst2:1,2017-10-01T16:42:00Z,26.0670,-97.1550,15.0,4.8,84.0,6.0,'11111222,11111222,11111222' 
NOS,ioos:station:wmo:bzst2:1,2017-10-01T16:48:00Z,26.0670,-97.1550,15.0,4.5,82.0,6.2,'11111222,11111222,11111222' 
NOS,ioos:station:wmo:bzst2:1,2017-10-01T16:54:00Z,26.0670,-97.1550,15.0,5.5,76.0,6.3,'11111222,11111222,11111222' 
NOS,ioos:station:wmo:bzst2:1,2017-10-01T17:00:00Z,26.0670,-97.1550,15.0,5.3,74.0,5.8,'11111222,11111222,11111222' 
NOS,ioos:station:wmo:bzst2:1,2017-10-01T17:06:00Z,26.0670,-97.1550,15.0,5.7,71.0,6.4,'11111222,11111222,11111222' 
NOS,ioos:station:wmo:bzst2:1,2017-10-01T17:12:00Z,26.0670,-97.1550,15.0,5.6,65.0,6.0,'11111222,11111222,11111222' 
NOS,ioos:station:wmo:bzst2:1,2017-10-01T17:18:00Z,26.0670,-97.1550,15.0,5.4,57.0,6.1,'11111222,11111222,11111222' 
NOS,ioos:station:wmo:bzst2:1,2017-10-01T17:24:00Z,26.0670,-97.1550,15.0,4.6,73.0,5.9,'11111222,11111222,11111222' 
NOS,ioos:station:wmo:bzst2:1,2017-10-01T17:30:00Z,26.0670,-97.1550,15.0,4.7,59.0,5.8,'11111222,11111222,11111222' 
NOS,ioos:station:wmo:bzst2:1,2017-10-01T17:36:00Z,26.0670,-97.1550,15.0,4.8,61.0,5.4,'11111222,11111222,11111222' 
NOS,ioos:station:wmo:bzst2:1,2017-10-01T17:42:00Z,26.0670,-97.1550,15.0,4.2,77.0,4.8,'11111222,11111222,11111222' 
NOS,ioos:station:wmo:bzst2:1,2017-10-01T17:48:00Z,26.0670,-97.1550,15.0,12.8,66.0,14.1,'11111222,11111222,11111222' 
NOS,ioos:station:wmo:bzst2:1,2017-10-01T17:54:00Z,26.0670,-97.1550,15.0,7.6,64.0,13.3,'11111222,11111222,11111222' 
NOS,ioos:station:wmo:bzst2:1,2017-10-01T18:00:00Z,26.0670,-97.1550,15.0,4.5,50.0,9.5,'11111222,11111222,11111222' 
NOS,ioos:station:wmo:bzst2:1,2017-10-01T18:06:00Z,26.0670,-97.1550,15.0,2.9,23.0,4.6,'11111222,11111222,11111222' 
NOS,ioos:station:wmo:bzst2:1,2017-10-01T18:12:00Z,26.0670,-97.1550,15.0,2.1,47.0,2.7,'11111222,11111222,11111222' 
NOS,ioos:station:wmo:bzst2:1,2017-10-01T18:18:00Z,26.0670,-97.1550,15.0,2.7,66.0,3.2,'11111222,11111222,11111222' 
NOS,ioos:station:wmo:bzst2:1,2017-10-01T18:24:00Z,26.0670,-97.1550,15.0,2.1,84.0,3.3,'11111222,11111222,11111222' 
NOS,ioos:station:wmo:bzst2:1,2017-10-01T18:30:00Z,26.0670,-97.1550,15.0,5.5,75.0,6.2,'11111222,11111222,11111222' 
NOS,ioos:station:wmo:bzst2:1,2017-10-01T18:36:00Z,26.0670,-97.1550,15.0,6.7,69.0,7.3,'11111222,11111222,11111222' 
NOS,ioos:station:wmo:bzst2:1,2017-10-01T18:42:00Z,26.0670,-97.1550,15.0,6.7,71.0,7.7,'11111222,11111222,11111222' 
NOS,ioos:station:wmo:bzst2:1,2017-10-01T18:48:00Z,26.0670,-97.1550,15.0,6.5,68.0,7.5,'11111222,11111222,11111222' 
NOS,ioos:station:wmo:bzst2:1,2017-10-01T18:54:00Z,26.0670,-97.1550,15.0,7.0,68.0,7.5,'11111222,11111222,11111222' 
NOS,ioos:station:wmo:bzst2:1,2017-10-01T19:00:00Z,26.0670,-97.1550,15.0,7.4,72.0,7.8,'11111222,11111222,11111222' 
NOS,ioos:station:wmo:bzst2:1,2017-10-01T19:06:00Z,26.0670,-97.1550,15.0,6.7,65.0,7.5,'11111222,11111222,11111222' 
NOS,ioos:station:wmo:bzst2:1,2017-10-01T19:12:00Z,26.0670,-97.1550,15.0,6.5,70.0,7.3,'11111222,11111222,11111222' 
NOS,ioos:station:wmo:bzst2:1,2017-10-01T19:18:00Z,26.0670,-97.1550,15.0,6.8,71.0,7.5,'11111222,11111222,11111222' 
NOS,ioos:station:wmo:bzst2:1,2017-10-01T19:24:00Z,26.0670,-97.1550,15.0,6.4,71.0,8.1,'11111222,11111222,11111222' 
NOS,ioos:station:wmo:bzst2:1,2017-10-01T19:30:00Z,26.0670,-97.1550,15.0,6.7,63.0,7.6,'11111222,11111222,11111222' 
NOS,ioos:station:wmo:bzst2:1,2017-10-01T19:36:00Z,26.0670,-97.1550,15.0,6.7,65.0,7.4,'11111222,11111222,11111222' 
NOS,ioos:station:wmo:bzst2:1,2017-10-01T19:42:00Z,26.0670,-97.1550,15.0,6.0,70.0,7.8,'11111222,11111222,11111222' 
NOS,ioos:station:wmo:bzst2:1,2017-10-01T19:48:00Z,26.0670,-97.1550,15.0,6.3,69.0,7.2,'11111222,11111222,11111222' 
NOS,ioos:station:wmo:bzst2:1,2017-10-01T19:54:00Z,26.0670,-97.1550,15.0,6.1,73.0,7.1,'11111222,11111222,11111222' 
NOS,ioos:station:wmo:bzst2:1,2017-10-01T20:00:00Z,26.0670,-97.1550,15.0,6.6,71.0,7.5,'11111222,11111222,11111222' 
NOS,ioos:station:wmo:bzst2:1,2017-10-01T20:06:00Z,26.0670,-97.1550,15.0,6.2,72.0,7.1,'11111222,11111222,11111222' 
NOS,ioos:station:wmo:bzst2:1,2017-10-01T20:12:00Z,26.0670,-97.1550,15.0,6.3,70.0,6.9,'11111222,11111222,11111222' 
NOS,ioos:station:wmo:bzst2:1,2017-10-01T20:18:00Z,26.0670,-97.1550,15.0,6.1,73.0,6.9,'11111222,11111222,11111222' 
NOS,ioos:station:wmo:bzst2:1,2017-10-01T20:24:00Z,26.0670,-97.1550,15.0,6.1,71.0,7.0,'11111222,11111222,11111222' 
NOS,ioos:station:wmo:bzst2:1,2017-10-01T20:30:00Z,26.0670,-97.1550,15.0,6.0,66.0,7.0,'11111222,11111222,11111222' 
NOS,ioos:station:wmo:bzst2:1,2017-10-01T20:36:00Z,26.0670,-97.1550,15.0,6.0,70.0,7.2,'11111222,11111222,11111222' 
NOS,ioos:station:wmo:bzst2:1,2017-10-01T20:42:00Z,26.0670,-97.1550,15.0,6.0,74.0,7.1,'11111222,11111222,11111222' 
NOS,ioos:station:wmo:bzst2:1,2017-10-01T20:48:00Z,26.0670,-97.1550,15.0,6.2,68.0,6.9,'11111222,11111222,11111222' 
NOS,ioos:station:wmo:bzst2:1,2017-10-01T20:54:00Z,26.0670,-97.1550,15.0,6.2,79.0,7.0,'11111222,11111222,11111222' 